| time (UTC) | temp C | wind direction | speed KPH | gust KPH | rain 1hr cm | rain 24hr cm | rain mn cm | humidity % | barometer mb |
| 20260509031935 | 13 | 212 | 0.0 | 8.0 | 0.00 | 0.00 | 0.00 | 90 | 1007.5 |
| 20260509030935 | 13 | 212 | 1.6 | 11.3 | 0.00 | 0.00 | 0.00 | 90 | 1007.5 |
| 20260509025935 | 13 | 264 | 3.2 | 8.0 | 0.00 | 0.00 | 0.00 | 90 | 1007.5 |
| 20260509024935 | 13 | 217 | 0.0 | 11.3 | 0.00 | 0.00 | 0.00 | 90 | 1007.6 |
| 20260509023935 | 13 | 220 | 1.6 | 9.7 | 0.00 | 0.00 | 0.00 | 89 | 1007.6 |
| 20260509022935 | 13 | 208 | 1.6 | 9.7 | 0.00 | 0.00 | 0.00 | 89 | 1007.6 |
| 20260509020935 | 13 | 213 | 0.0 | 8.0 | 0.00 | 0.00 | 0.00 | 88 | 1007.6 |
| 20260509015935 | 13 | 217 | 0.0 | 8.0 | 0.00 | 0.00 | 0.00 | 87 | 1007.6 |
| 20260509014935 | 13 | 222 | 0.0 | 0.0 | 0.00 | 0.00 | 0.00 | 86 | 1007.5 |
| 20260509012935 | 14 | 222 | 0.0 | 0.0 | 0.00 | 0.03 | 0.00 | 84 | 1007.5 |
| 20260509011935 | 14 | 222 | 0.0 | 0.0 | 0.00 | 0.03 | 0.00 | 84 | 1007.4 |
| 20260509010935 | 14 | 222 | 0.0 | 9.7 | 0.00 | 0.03 | 0.00 | 83 | 1007.5 |
| 20260509005935 | 15 | 170 | 0.0 | 4.8 | 0.00 | 0.03 | 0.00 | 82 | 1007.5 |
| 20260509004935 | 15 | 157 | 0.0 | 9.7 | 0.00 | 0.03 | 0.00 | 82 | 1007.4 |
| 20260509003935 | 15 | 179 | 1.6 | 12.9 | 0.00 | 0.03 | 0.00 | 82 | 1007.3 |
| 20260509002935 | 15 | 236 | 3.2 | 9.7 | 0.00 | 0.03 | 0.00 | 80 | 1007.2 |
| 20260509001935 | 16 | 275 | 1.6 | 4.8 | 0.00 | 0.03 | 0.00 | 79 | 1007.2 |
| 20260509000935 | 16 | 138 | 1.6 | 9.7 | 0.00 | 0.03 | 0.00 | 77 | 1007.4 |
| 20260508235935 | 16 | 189 | 0.0 | 8.0 | 0.00 | 0.03 | 0.00 | 77 | 1007.3 |
| 20260508234935 | 16 | 176 | 0.0 | 8.0 | 0.00 | 0.03 | 0.00 | 76 | 1007.4 |
| 20260508233935 | 16 | 157 | 0.0 | 9.7 | 0.00 | 0.03 | 0.00 | 75 | 1007.3 |
| 20260508231935 | 16 | 260 | 1.6 | 9.7 | 0.00 | 0.03 | 0.00 | 74 | 1007.5 |
| 20260508230935 | 16 | 175 | 1.6 | 9.7 | 0.00 | 0.03 | 0.00 | 74 | 1007.5 |
| 20260508225935 | 17 | 289 | 1.6 | 9.7 | 0.00 | 0.03 | 0.00 | 73 | 1007.6 |
| 20260508224935 | 17 | 225 | 3.2 | 11.3 | 0.00 | 0.03 | 0.00 | 73 | 1007.7 |
| 20260508223935 | 17 | 288 | 0.0 | 12.9 | 0.00 | 0.03 | 0.00 | 73 | 1007.7 |
| 20260508222936 | 17 | 270 | 3.2 | 11.3 | 0.00 | 0.03 | 0.00 | 72 | 1007.8 |
| 20260508221935 | 17 | 277 | 6.4 | 14.5 | 0.00 | 0.03 | 0.00 | 71 | 1007.9 |
| 20260508220935 | 17 | 293 | 3.2 | 11.3 | 0.00 | 0.03 | 0.00 | 71 | 1007.8 |
| 20260508215935 | 17 | 263 | 1.6 | 14.5 | 0.00 | 0.03 | 0.00 | 70 | 1007.8 |
| 20260508214935 | 17 | 265 | 3.2 | 11.3 | 0.00 | 0.03 | 0.00 | 70 | 1007.9 |
| 20260508213935 | 17 | 185 | 8.0 | 14.5 | 0.00 | 0.03 | 0.00 | 68 | 1008.0 |
| 20260508210936 | 17 | 281 | 3.2 | 11.3 | 0.00 | 0.03 | 0.00 | 68 | 1008.2 |
| 20260508204936 | 17 | 251 | 6.4 | 12.9 | 0.00 | 0.03 | 0.00 | 66 | 1008.2 |
| 20260508203936 | 17 | 276 | 3.2 | 12.9 | 0.00 | 0.03 | 0.00 | 67 | 1008.3 |
| 20260508202935 | 17 | 293 | 8.0 | 12.9 | 0.00 | 0.03 | 0.00 | 67 | 1008.4 |
| 20260508201936 | 17 | 287 | 4.8 | 14.5 | 0.00 | 0.03 | 0.00 | 66 | 1008.5 |
| 20260508200935 | 18 | 260 | 4.8 | 16.1 | 0.00 | 0.03 | 0.00 | 66 | 1008.6 |
| 20260508195935 | 18 | 261 | 3.2 | 12.9 | 0.00 | 0.03 | 0.00 | 65 | 1008.7 |
| 20260508194936 | 18 | 207 | 4.8 | 14.5 | 0.00 | 0.03 | 0.00 | 67 | 1009.0 |
| 20260508193935 | 18 | 250 | 3.2 | 19.3 | 0.00 | 0.03 | 0.00 | 66 | 1008.9 |
| 20260508192935 | 18 | 282 | 8.0 | 14.5 | 0.00 | 0.03 | 0.00 | 65 | 1009.2 |
| 20260508191936 | 18 | 228 | 9.7 | 20.9 | 0.00 | 0.03 | 0.00 | 66 | 1009.2 |
| 20260508190936 | 18 | 296 | 8.0 | 14.5 | 0.00 | 0.03 | 0.00 | 65 | 1009.6 |
| 20260508184935 | 18 | 251 | 3.2 | 12.9 | 0.00 | 0.03 | 0.00 | 64 | 1009.7 |
| 20260508183936 | 18 | 195 | 1.6 | 12.9 | 0.00 | 0.03 | 0.00 | 62 | 1009.9 |
| 20260508181935 | 18 | 255 | 4.8 | 12.9 | 0.00 | 0.03 | 0.00 | 60 | 1010.0 |
| 20260508180936 | 18 | 202 | 3.2 | 11.3 | 0.00 | 0.03 | 0.00 | 63 | 1010.2 |
| 20260508175936 | 17 | 237 | 3.2 | 12.9 | 0.00 | 0.03 | 0.00 | 63 | 1010.3 |
| 20260508174936 | 17 | 272 | 1.6 | 11.3 | 0.00 | 0.03 | 0.00 | 68 | 1010.5 |
| 20260508172936 | 17 | 235 | 1.6 | 9.7 | 0.00 | 0.03 | 0.00 | 66 | 1010.7 |
| 20260508171936 | 17 | 272 | 1.6 | 16.1 | 0.00 | 0.03 | 0.00 | 65 | 1010.8 |
| 20260508170936 | 17 | 263 | 0.0 | 12.9 | 0.00 | 0.03 | 0.00 | 64 | 1010.9 |
| 20260508164935 | 17 | 253 | 4.8 | 14.5 | 0.00 | 0.03 | 0.00 | 61 | 1011.2 |
| 20260508163935 | 17 | 253 | 3.2 | 11.3 | 0.00 | 0.03 | 0.00 | 59 | 1011.3 |
| 20260508161935 | 16 | 260 | 6.4 | 11.3 | 0.00 | 0.03 | 0.00 | 70 | 1011.5 |
| 20260508160935 | 15 | 261 | 1.6 | 11.3 | 0.00 | 0.03 | 0.00 | 72 | 1011.5 |
| 20260508155936 | 15 | 285 | 4.8 | 12.9 | 0.00 | 0.03 | 0.00 | 75 | 1011.7 |
| 20260508154936 | 15 | 161 | 0.0 | 11.3 | 0.00 | 0.03 | 0.00 | 75 | 1011.3 |
| 20260508153936 | 15 | 178 | 0.0 | 9.7 | 0.00 | 0.03 | 0.00 | 78 | 1011.4 |
| 20260508152936 | 14 | 186 | 3.2 | 9.7 | 0.00 | 0.03 | 0.00 | 80 | 1011.4 |
| 20260508151936 | 14 | 286 | 3.2 | 11.3 | 0.00 | 0.03 | 0.00 | 79 | 1011.5 |
| 20260508150936 | 13 | 209 | 4.8 | 11.3 | 0.00 | 0.03 | 0.00 | 82 | 1011.4 |
| 20260508145936 | 13 | 47 | 4.8 | 12.9 | 0.00 | 0.03 | 0.00 | 83 | 1011.7 |
| 20260508144936 | 13 | 261 | 4.8 | 12.9 | 0.00 | 0.03 | 0.00 | 83 | 1011.8 |
| 20260508143936 | 12 | 283 | 3.2 | 12.9 | 0.00 | 0.03 | 0.00 | 86 | 1011.8 |
| 20260508142936 | 12 | 295 | 1.6 | 11.3 | 0.00 | 0.03 | 0.00 | 87 | 1011.8 |
| 20260508141936 | 12 | 263 | 1.6 | 11.3 | 0.00 | 0.03 | 0.00 | 87 | 1011.8 |
| 20260508140936 | 12 | 184 | 1.6 | 11.3 | 0.00 | 0.03 | 0.00 | 88 | 1012.1 |
| 20260508134936 | 12 | 193 | 1.6 | 8.0 | 0.00 | 0.03 | 0.00 | 85 | 1011.8 |
| 20260508133936 | 12 | 220 | 0.0 | 9.7 | 0.00 | 0.03 | 0.00 | 86 | 1012.0 |
| 20260508132936 | 11 | 206 | 0.0 | 0.0 | 0.00 | 0.03 | 0.00 | 87 | 1011.9 |
| 20260508131936 | 11 | 206 | 0.0 | 3.2 | 0.00 | 0.03 | 0.00 | 89 | 1012.1 |
| 20260508130936 | 11 | 206 | 0.0 | 0.0 | 0.00 | 0.03 | 0.00 | 89 | 1012.0 |
| 20260508125936 | 11 | 206 | 0.0 | 0.0 | 0.00 | 0.03 | 0.00 | 90 | 1012.0 |
| 20260508124936 | 10 | 206 | 0.0 | 0.0 | 0.00 | 0.03 | 0.00 | 91 | 1012.0 |
| 20260508122936 | 10 | 206 | 0.0 | 0.0 | 0.00 | 0.03 | 0.00 | 91 | 1012.0 |
| 20260508121936 | 9 | 206 | 0.0 | 0.0 | 0.00 | 0.03 | 0.00 | 92 | 1011.9 |
| 20260508120936 | 9 | 206 | 0.0 | 0.0 | 0.00 | 0.03 | 0.00 | 92 | 1011.9 |
| 20260508115937 | 8 | 206 | 0.0 | 0.0 | 0.00 | 0.03 | 0.00 | 93 | 1011.9 |
| 20260508114936 | 8 | 206 | 0.0 | 0.0 | 0.00 | 0.03 | 0.00 | 93 | 1011.9 |
| 20260508113936 | 8 | 206 | 0.0 | 0.0 | 0.00 | 0.03 | 0.00 | 92 | 1011.8 |
| 20260508112936 | 8 | 206 | 0.0 | 0.0 | 0.00 | 0.03 | 0.00 | 92 | 1011.9 |
| 20260508111937 | 8 | 206 | 0.0 | 0.0 | 0.00 | 0.03 | 0.00 | 92 | 1011.7 |
| 20260508110936 | 8 | 206 | 0.0 | 0.0 | 0.00 | 0.03 | 0.00 | 92 | 1011.7 |
| 20260508105936 | 8 | 206 | 0.0 | 0.0 | 0.00 | 0.03 | 0.00 | 92 | 1011.7 |
| 20260508104936 | 8 | 206 | 0.0 | 0.0 | 0.00 | 0.03 | 0.03 | 92 | 1011.7 |
| 20260508103937 | 8 | 206 | 0.0 | 0.0 | 0.00 | 0.03 | 0.03 | 92 | 1011.7 |
| 20260508101936 | 8 | 206 | 0.0 | 0.0 | 0.00 | 0.03 | 0.03 | 92 | 1011.6 |
| 20260508100936 | 8 | 206 | 0.0 | 0.0 | 0.00 | 0.03 | 0.03 | 92 | 1011.5 |
| 20260508095936 | 8 | 206 | 0.0 | 0.0 | 0.00 | 0.03 | 0.03 | 92 | 1011.7 |
| 20260508094936 | 8 | 206 | 0.0 | 0.0 | 0.00 | 0.03 | 0.03 | 92 | 1011.9 |
| 20260508092937 | 8 | 206 | 0.0 | 0.0 | 0.00 | 0.03 | 0.03 | 92 | 1011.7 |
| 20260508091937 | 8 | 206 | 0.0 | 0.0 | 0.00 | 0.03 | 0.03 | 92 | 1011.8 |
| 20260508085937 | 8 | 206 | 0.0 | 0.0 | 0.00 | 0.03 | 0.03 | 92 | 1011.8 |
| 20260508084937 | 8 | 206 | 0.0 | 3.2 | 0.00 | 0.03 | 0.03 | 92 | 1011.6 |
| 20260508083936 | 8 | 178 | 0.0 | 0.0 | 0.00 | 0.03 | 0.03 | 92 | 1011.7 |
| 20260508082937 | 8 | 178 | 0.0 | 0.0 | 0.00 | 0.03 | 0.03 | 92 | 1011.7 |
| 20260508081937 | 8 | 178 | 0.0 | 0.0 | 0.00 | 0.03 | 0.03 | 92 | 1011.8 |
| 20260508080936 | 8 | 178 | 0.0 | 4.8 | 0.00 | 0.03 | 0.03 | 92 | 1011.8 |
| 20260508074937 | 8 | 272 | 0.0 | 0.0 | 0.00 | 0.03 | 0.03 | 92 | 1011.8 |
| 20260508073936 | 8 | 272 | 0.0 | 0.0 | 0.00 | 0.03 | 0.03 | 92 | 1011.8 |
| 20260508071937 | 8 | 272 | 0.0 | 0.0 | 0.00 | 0.03 | 0.03 | 92 | 1011.8 |
| 20260508065936 | 8 | 272 | 0.0 | 11.3 | 0.00 | 0.03 | 0.03 | 92 | 1011.9 |
| 20260508064936 | 8 | 182 | 0.0 | 9.7 | 0.00 | 0.03 | 0.03 | 92 | 1011.9 |
| 20260508063937 | 8 | 246 | 0.0 | 12.9 | 0.00 | 0.03 | 0.03 | 92 | 1011.9 |
| 20260508062936 | 8 | 270 | 3.2 | 11.3 | 0.00 | 0.03 | 0.03 | 92 | 1012.1 |
| 20260508061936 | 8 | 232 | 0.0 | 14.5 | 0.00 | 0.03 | 0.03 | 92 | 1012.1 |
| 20260508060937 | 8 | 311 | 0.0 | 9.7 | 0.00 | 0.03 | 0.03 | 92 | 1012.1 |
| 20260508055937 | 8 | 251 | 1.6 | 9.7 | 0.00 | 0.03 | 0.03 | 92 | 1012.1 |
| 20260508054937 | 8 | 227 | 4.8 | 16.1 | 0.00 | 0.03 | 0.03 | 92 | 1012.2 |
| 20260508053936 | 8 | 195 | 0.0 | 8.0 | 0.00 | 0.03 | 0.03 | 91 | 1012.2 |
| 20260508052937 | 8 | 188 | 0.0 | 0.0 | 0.00 | 0.03 | 0.03 | 91 | 1012.2 |
| 20260508051937 | 8 | 188 | 0.0 | 8.0 | 0.00 | 0.03 | 0.03 | 90 | 1012.3 |
| 20260508050937 | 8 | 267 | 0.0 | 0.0 | 0.00 | 0.03 | 0.03 | 90 | 1012.2 |
| 20260508044937 | 8 | 267 | 0.0 | 0.0 | 0.00 | 0.03 | 0.03 | 90 | 1012.2 |
| 20260508043937 | 8 | 267 | 0.0 | 0.0 | 0.00 | 0.03 | 0.03 | 90 | 1012.3 |
| 20260508042937 | 8 | 267 | 0.0 | 0.0 | 0.00 | 0.03 | 0.03 | 89 | 1012.3 |
| 20260508040937 | 8 | 267 | 0.0 | 0.0 | 0.00 | 0.03 | 0.03 | 90 | 1012.3 |
| 20260508035937 | 8 | 267 | 0.0 | 0.0 | 0.00 | 0.03 | 0.03 | 90 | 1012.3 |
| 20260508033936 | 9 | 267 | 1.6 | 9.7 | 0.00 | 0.03 | 0.03 | 90 | 1012.2 |
| 20260508032937 | 9 | 154 | 0.0 | 9.7 | 0.00 | 0.03 | 0.03 | 89 | 1012.1 |